Regional Weather Roundup
Issued by NWS Albany, NY

Home | Current Version | Previous Version | Text Only | Print | Product List | Glossary On
Versions: 1 2 3 4 5 6 7 8 9 10 11 12 13 14 15 16 17 18 19 20 21 22 23 24 25 26 27 28 29 30 31 32 33 34 35 36 37 38 39 40 41 42 43 44 45 46 47 48 49 50
179
ASUS41 KALY 241410
RWRALY

NEW YORK STATE HOURLY WEATHER ROUNDUP
NATIONAL WEATHER SERVICE ALBANY NY
1000 AM EDT MON APR 24 2017

NOTE: "FAIR" INDICATES FEW OR NO CLOUDS BELOW 12,000 FEET WITH NO
SIGNIFICANT WEATHER AND/OR NO OBSTRUCTIONS TO VISIBILITY.

NYZ032-033-038>043-046>054-057>066-NYZ062>081-082-084-241500-
EAST


CITY           SKY/WX    TMP DP  RH WIND       PRES   REMARKS
ALBANY         PTSUNNY   57  41  55 N6        30.20R
GLENS FALLS    SUNNY     52  38  58 E8        30.20S
POUGHKEEPSIE   CLOUDY    58  44  60 CALM      30.16S
NEWBURGH       PTSUNNY   55  48  76 VRB5      30.18R
MONTGOMERY     CLOUDY    56  47  71 CALM      30.16R
WHITE PLAINS   CLOUDY    52  44  74 SE3       30.17S
ISLIP          CLOUDY    53  40  61 E5        30.17F
NEW YORK CITY  CLOUDY    55  44  66 NE6       30.18R
CENTRAL PARK   CLOUDY    56  43  61 CALM      30.20R
$$

NYZ005>009-017-018-044>046-055-056-241500-
CENTRAL


CITY           SKY/WX    TMP DP  RH WIND       PRES   REMARKS
FULTON         PTSUNNY   50  38  63 CALM      30.18S
SYRACUSE       PTSUNNY   52  41  66 CALM      30.17S
ROME           MOSUNNY   53  40  61 CALM      30.18S
ELMIRA         SUNNY     54  41  61 SE6       30.13F
BINGHAMTON     MOSUNNY   55  36  48 NE3       30.13S
MONTICELLO     CLOUDY    55  39  54 CALM      30.17S
$$

NYZ026>034-041>043-087-241500-
NORTH


CITY           SKY/WX    TMP DP  RH WIND       PRES   REMARKS
WATERTOWN      SUNNY     44  34  67 NE15      30.22F
FORT DRUM      NOT AVBL
OGDENSBURG     FAIR      43  29  59 N10       30.26F
MASSENA        PTSUNNY   41  29  62 NE14      30.30R
SARANAC LAKE   MOSUNNY   43  35  73 NE5       30.17F
PLATTSBURGH    PTSUNNY   38  25  59 N16       30.29R WCI  29
$$

NYZ001>004-010>016-019>021-085-241500-
WEST


CITY           SKY/WX    TMP DP  RH WIND       PRES   REMARKS
NIAGARA FALLS  SUNNY     50  37  61 E13       30.15S
BUFFALO        MOSUNNY   50  38  63 NE15      30.15S
DUNKIRK        SUNNY     56  37  49 N8        30.11F
JAMESTOWN      SUNNY     57  34  41 NE6       30.10S
WELLSVILLE     SUNNY     58  35  42 SE3       30.13S
ROCHESTER      MOSUNNY   45  36  70 E9        30.20S
PENN YAN       SUNNY     50  39  66 VRB3      30.17S
$$

             KEY
       WCI = WIND CHILL INDEX
       VSB = VISIBILITY
       HX  = HEAT INDEX
$$




USA.gov is the U.S. government's official web portal to all federal, state and local government web resources and services.